Location: Caltech
(34.1382°N, 118.1253°W)
Time: 00:58:27
(UTC-07:00)

Cosmos 1408 Rocket - Visible Passes

Search period start: 28 May 2015 00:00
Search period end: 07 June 2015 00:00
Orbit: 602 x 632 km, 82.6° (Epoch: 28 May)

Date Brightness Start Highest point End Pass type
(mag) Time Alt. Az. Time Alt. Az. Time Alt. Az.
28 May 6.1 00:08:08 15° WNW 00:08:08 15° WNW 00:09:45 10° NW visible
28 May 4.7 22:47:18 37° NNE 22:47:18 37° NNE 22:50:01 10° NNE visible
29 May 4.5 23:03:31 45° NNW 23:03:31 45° NNW 23:06:42 10° N visible
30 May 5.5 21:42:38 15° ENE 21:42:38 15° ENE 21:44:20 10° NE visible
30 May 5.2 23:19:43 30° WNW 23:19:43 30° WNW 23:23:02 10° NNW visible
31 May 4.6 21:58:47 29° ENE 21:58:47 29° ENE 22:01:59 10° NNE visible
31 May 5.9 23:35:52 17° WNW 23:36:05 17° WNW 23:38:47 10° NW visible
01 Jun 3.5 22:14:54 62° E 22:14:54 62° E 22:19:01 10° NNE visible
02 Jun 3.7 22:31:00 60° WSW 22:31:23 64° W 22:35:42 10° N visible
03 Jun 5.2 21:09:58 15° E 21:10:33 16° E 21:13:18 10° NE visible
03 Jun 5.0 22:47:03 28° WSW 22:48:10 32° WNW 22:52:02 10° NNW visible
04 Jun 4.4 21:25:57 26° ESE 21:27:06 30° E 21:30:57 10° NNE visible
04 Jun 6.0 23:03:02 13° WSW 23:05:03 17° WNW 23:07:49 10° NW visible
05 Jun 3.5 21:41:54 33° SSE 21:43:42 62° E 21:48:00 10° NNE visible
06 Jun 3.8 21:57:47 23° SSW 22:00:22 65° W 22:04:42 10° N visible
